EW9167 Weather Reports


time (UTC)temp
F
wind
direction
speed
knots
gust
knots
rain 1hr
in
rain 24hr
in
rain mn
in
humidity
%
barometer
mb
20260504151135 69 224 3.5 5.2 0.00 0.00 0.00 47 1016.0
20260504150134 68 227 2.6 6.1 0.00 0.00 0.00 47 1016.0
20260504140131 64 276 0.0 7.0 0.00 0.00 0.00 51 1016.3
20260504130133 60 214 2.6 7.8 0.00 0.00 0.00 60 1016.7
20260504120132 54 169 1.7 4.3 0.00 0.00 0.00 74 1016.7
20260504110133 49 138 2.6 2.6 0.00 0.00 0.00 80 1017.3
20260504100134 47 149 1.7 2.6 0.00 0.00 0.00 77 1017.3
20260504090125 48 140 1.7 4.3 0.00 0.00 0.00 74 1017.3
20260504081119 46 125 1.7 2.6 0.00 0.00 0.00 73 1017.3
20260504080117 45 134 1.7 2.6 0.00 0.00 0.00 72 1017.3
20260504070105 46 129 1.7 3.5 0.00 0.00 0.00 70 1017.0
20260504060105 46 122 0.9 2.6 0.00 0.00 0.00 68 1017.0
20260504045103 48 129 1.7 2.6 0.00 0.00 0.00 64 1017.0
20260504044104 48 155 1.7 3.5 0.00 0.00 0.00 63 1016.7
20260504043104 48 195 1.7 3.5 0.00 0.00 0.00 64 1016.7
20260504042104 48 123 1.7 2.6 0.00 0.00 0.00 63 1016.7
20260504041546 48 137 1.7 3.5 0.00 0.00 0.00 64 1017.0
20260504040104 48 137 0.0 1.7 0.00 0.00 0.00 63 1016.7
20260504035107 48 131 1.7 2.6 0.00 0.00 0.00 62 1016.7
20260504034104 48 127 1.7 2.6 0.00 0.00 0.00 61 1016.3
20260504033104 48 127 1.7 1.7 0.00 0.00 0.00 60 1016.3
20260504032103 48 136 1.7 1.7 0.00 0.00 0.00 60 1016.3
20260504031104 49 128 1.7 2.6 0.00 0.00 0.00 57 1016.3
20260504030549 49 126 1.7 1.7 0.00 0.00 0.00 56 1016.3
20260504025555 50 127 1.7 2.6 0.00 0.00 0.00 55 1016.7
20260504024458 50 134 0.9 2.6 0.00 0.00 0.00 53 1016.3
20260504024244 50 124 1.7 2.6 0.00 0.00 0.00 55 1016.3
20260504022106 51 187 0.9 2.6 0.00 0.00 0.00 53 1016.3
20260504021104 51 108 0.9 2.6 0.00 0.00 0.00 53 1016.3
20260504020104 50 157 1.7 2.6 0.00 0.00 0.00 52 1016.3
20260504015103 50 139 1.7 3.5 0.00 0.00 0.00 52 1016.3
20260504014948 51 126 1.7 2.6 0.00 0.00 0.00 50 1016.0
20260504014244 51 128 1.7 2.6 0.00 0.00 0.00 51 1016.0
20260504012104 51 143 1.7 2.6 0.00 0.00 0.00 51 1016.0
20260504011100 51 117 1.7 1.7 0.00 0.00 0.00 51 1015.6
20260504010100 51 122 1.7 1.7 0.00 0.00 0.00 50 1015.6
20260504005100 52 133 1.7 1.7 0.00 0.00 0.00 48 1015.6
20260504004057 53 127 1.7 1.7 0.00 0.00 0.00 46 1015.6
20260504003056 54 128 1.7 1.7 0.00 0.00 0.00 43 1015.3
20260504002056 55 152 0.9 1.7 0.00 0.00 0.00 42 1015.0
20260504001053 56 164 0.9 1.7 0.00 0.00 0.00 41 1015.0
20260504000053 56 180 0.9 2.6 0.00 0.00 0.00 40 1015.0
20260503235053 57 157 0.9 2.6 0.00 0.00 0.00 40 1015.0
20260503234051 58 205 0.9 3.5 0.00 0.00 0.00 39 1015.3
20260503233049 58 189 0.9 3.5 0.00 0.00 0.00 37 1015.0
20260503232052 59 152 1.7 3.5 0.00 0.00 0.00 36 1014.6
20260503231048 59 174 0.0 8.7 0.00 0.00 0.00 36 1015.0
20260503230047 60 240 1.7 4.3 0.00 0.00 0.00 35 1015.0
20260503230016 60 128 1.7 6.1 0.00 0.00 0.00 35 1014.6
20260503224046 61 212 3.5 6.1 0.00 0.00 0.00 33 1014.6
20260503223043 61 64 1.7 4.3 0.00 0.00 0.00 33 1014.6
20260503222042 62 48 1.7 11.3 0.00 0.00 0.00 32 1015.0
20260503221040 64 231 3.5 9.6 0.00 0.00 0.00 30 1014.6
20260503220039 65 343 2.6 6.1 0.00 0.00 0.00 29 1014.6
20260503215039 67 262 0.0 7.0 0.00 0.00 0.00 30 1014.6
20260503214037 67 118 0.0 3.5 0.00 0.00 0.00 32 1015.0
20260503213036 67 123 1.7 8.7 0.00 0.00 0.00 27 1014.6
20260503212043 68 126 1.7 12.2 0.00 0.00 0.00 30 1015.0
20260503211516 68 251 6.1 7.0 0.00 0.00 0.00 30 1014.6
20260503210516 67 227 3.5 9.6 0.00 0.00 0.00 31 1015.0
20260503205039 67 227 3.5 8.7 0.00 0.00 0.00 30 1014.6
20260503204033 65 311 1.7 9.6 0.00 0.00 0.00 31 1015.0
20260503203032 66 210 2.6 11.3 0.00 0.00 0.00 31 1014.6
20260503202030 66 87 1.7 7.0 0.00 0.00 0.00 32 1015.0
20260503201029 65 269 0.0 6.1 0.00 0.00 0.00 32 1015.3
20260503200503 67 163 3.5 8.7 0.00 0.00 0.00 33 1015.0
20260503195029 65 174 1.7 7.0 0.00 0.00 0.00 29 1015.0
20260503194028 67 214 4.3 8.7 0.00 0.00 0.00 28 1015.0
20260503193030 69 267 3.5 4.3 0.00 0.00 0.00 28 1015.0
20260503192027 66 134 0.9 13.0 0.00 0.00 0.00 31 1015.3
20260503191026 65 256 4.3 7.0 0.00 0.00 0.00 31 1015.3
20260503190029 65 56 0.9 6.1 0.00 0.00 0.00 32 1015.3
20260503185022 64 189 2.6 7.0 0.00 0.00 0.00 34 1015.6
20260503184022 64 233 7.0 12.2 0.00 0.00 0.00 29 1015.6
20260503183020 62 303 1.7 11.3 0.00 0.00 0.00 33 1015.6
20260503182019 62 58 1.7 12.2 0.00 0.00 0.00 33 1015.6
20260503181018 62 213 6.1 14.8 0.00 0.00 0.00 32 1015.6
20260503180027 60 23 1.7 7.0 0.00 0.00 0.00 35 1016.0
20260503175018 59 91 1.7 9.6 0.00 0.00 0.00 34 1016.0
20260503174015 60 233 4.3 9.6 0.00 0.00 0.00 36 1016.0
20260503173508 59 117 2.6 7.8 0.00 0.00 0.00 37 1015.6
20260503172014 59 246 9.6 10.4 0.00 0.00 0.00 35 1016.0
20260503171011 59 264 0.9 7.0 0.00 0.00 0.00 41 1016.0